Time,TemperatureF,DewpointF,PressureIn,WindDirection,WindDirectionDegrees,WindSpeedMPH,WindSpeedGustMPH,Humidity,HourlyPrecipIn,Conditions,Clouds,dailyrainin,SoftwareType,DateUTC
2013-03-19 00:00:00,16.0,-99.9,-100.00,North,-999,-999.0,-999.0,-999,-99.99,,,0.02,,2013-03-19 06:00:00,
2013-03-19 01:00:00,16.0,-99.9,-100.00,North,-999,-999.0,-999.0,-999,-99.99,,,0.02,,2013-03-19 07:00:00,
2013-03-19 01:53:00,16.0,-99.9,-100.00,North,-999,-999.0,-999.0,-999,-99.99,,,0.02,,2013-03-19 07:53:00,
2013-03-19 02:00:00,16.0,-99.9,-100.00,North,-999,-999.0,-999.0,-999,-99.99,,,0.02,,2013-03-19 08:00:00,
2013-03-19 02:53:00,16.0,-99.9,-100.00,North,-999,-999.0,-999.0,-999,-99.99,,,0.02,,2013-03-19 08:53:00,
2013-03-19 03:00:00,15.0,-99.9,-100.00,North,-999,-999.0,-999.0,-999,-99.99,,,0.02,,2013-03-19 09:00:00,
2013-03-19 03:53:00,15.0,-99.9,-100.00,North,-999,-999.0,-999.0,-999,-99.99,,,0.02,,2013-03-19 09:53:00,
2013-03-19 04:00:00,15.0,-99.9,-100.00,North,-999,-999.0,-999.0,-999,-99.99,,,0.02,,2013-03-19 10:00:00,
2013-03-19 04:54:00,15.0,-99.9,-100.00,North,-999,-999.0,-999.0,-999,-99.99,,,0.02,,2013-03-19 10:54:00,
2013-03-19 05:00:00,15.0,-99.9,-100.00,North,-999,-999.0,-999.0,-999,-99.99,,,-99.99,,2013-03-19 11:00:00,
2013-03-19 05:53:00,15.0,-99.9,-100.00,North,-999,-999.0,-999.0,-999,-99.99,,,-99.99,,2013-03-19 11:53:00,
2013-03-19 06:00:00,14.0,-99.9,-100.00,North,-999,-999.0,-999.0,-999,-99.99,,,0.02,,2013-03-19 12:00:00,
2013-03-19 06:52:00,14.0,-99.9,-100.00,North,-999,-999.0,-999.0,-999,-99.99,,,0.02,,2013-03-19 12:52:00,
2013-03-19 07:00:00,12.0,-99.9,-100.00,North,-999,-999.0,-999.0,-999,-99.99,,,0.02,,2013-03-19 13:00:00,
2013-03-19 07:53:00,12.0,-99.9,-100.00,North,-999,-999.0,-999.0,-999,-99.99,,,0.02,,2013-03-19 13:53:00,
2013-03-19 08:00:00,11.0,-99.9,-100.00,North,-999,-999.0,-999.0,-999,-99.99,,,0.02,,2013-03-19 14:00:00,
2013-03-19 08:53:00,11.0,-99.9,-100.00,North,-999,-999.0,-999.0,-999,-99.99,,,0.02,,2013-03-19 14:53:00,
2013-03-19 09:00:00,13.0,-99.9,-100.00,North,-999,-999.0,-999.0,-999,-99.99,,,0.01,,2013-03-19 15:00:00,
2013-03-19 09:54:00,13.0,-99.9,-100.00,North,-999,-999.0,-999.0,-999,-99.99,,,0.01,,2013-03-19 15:54:00,
2013-03-19 10:00:00,21.0,-99.9,-100.00,North,-999,-999.0,-999.0,-999,-99.99,,,0.01,,2013-03-19 16:00:00,
2013-03-19 10:55:00,21.0,-99.9,-100.00,North,-999,-999.0,-999.0,-999,-99.99,,,0.01,,2013-03-19 16:55:00,
2013-03-19 11:00:00,24.0,-99.9,-100.00,North,-999,-999.0,-999.0,-999,-99.99,,,0.01,,2013-03-19 17:00:00,
2013-03-19 11:54:00,24.0,-99.9,-100.00,North,-999,-999.0,-999.0,-999,-99.99,,,0.01,,2013-03-19 17:54:00,
2013-03-19 12:00:00,25.0,-99.9,-100.00,North,-999,-999.0,-999.0,-999,-99.99,,,0.02,,2013-03-19 18:00:00,
2013-03-19 12:54:00,25.0,-99.9,-100.00,North,-999,-999.0,-999.0,-999,-99.99,,,0.02,,2013-03-19 18:54:00,
2013-03-19 13:00:00,28.0,-99.9,-100.00,North,-999,-999.0,-999.0,-999,-99.99,,,0.02,,2013-03-19 19:00:00,
2013-03-19 13:54:00,28.0,-99.9,-100.00,North,-999,-999.0,-999.0,-999,-99.99,,,0.02,,2013-03-19 19:54:00,
2013-03-19 14:00:00,30.0,-99.9,-100.00,North,-999,-999.0,-999.0,-999,-99.99,,,0.02,,2013-03-19 20:00:00,
2013-03-19 14:53:00,30.0,-99.9,-100.00,North,-999,-999.0,-999.0,-999,-99.99,,,0.02,,2013-03-19 20:53:00,
2013-03-19 15:00:00,30.0,-99.9,-100.00,North,-999,-999.0,-999.0,-999,-99.99,,,0.02,,2013-03-19 21:00:00,
2013-03-19 15:54:00,30.0,-99.9,-100.00,North,-999,-999.0,-999.0,-999,-99.99,,,0.02,,2013-03-19 21:54:00,
2013-03-19 16:00:00,30.0,-99.9,-100.00,North,-999,-999.0,-999.0,-999,-99.99,,,0.02,,2013-03-19 22:00:00,
2013-03-19 16:54:00,30.0,-99.9,-100.00,North,-999,-999.0,-999.0,-999,-99.99,,,0.02,,2013-03-19 22:54:00,
2013-03-19 17:00:00,28.0,-99.9,-100.00,North,-999,-999.0,-999.0,-999,-99.99,,,0.02,,2013-03-19 23:00:00,
2013-03-19 17:53:00,28.0,-99.9,-100.00,North,-999,-999.0,-999.0,-999,-99.99,,,0.02,,2013-03-19 23:53:00,
2013-03-19 18:00:00,29.0,-99.9,-100.00,North,-999,-999.0,-999.0,-999,-99.99,,,0.02,,2013-03-20 00:00:00,
2013-03-19 18:53:00,29.0,-99.9,-100.00,North,-999,-999.0,-999.0,-999,-99.99,,,0.02,,2013-03-20 00:53:00,
2013-03-19 19:00:00,25.0,-99.9,-100.00,North,-999,-999.0,-999.0,-999,-99.99,,,0.02,,2013-03-20 01:00:00,
2013-03-19 19:53:00,25.0,-99.9,-100.00,North,-999,-999.0,-999.0,-999,-99.99,,,0.02,,2013-03-20 01:53:00,
2013-03-19 20:00:00,21.0,-99.9,-100.00,North,-999,-999.0,-999.0,-999,-99.99,,,0.02,,2013-03-20 02:00:00,
2013-03-19 20:53:00,21.0,-99.9,-100.00,North,-999,-999.0,-999.0,-999,-99.99,,,0.02,,2013-03-20 02:53:00,
2013-03-19 21:00:00,17.0,-99.9,-100.00,North,-999,-999.0,-999.0,-999,-99.99,,,0.02,,2013-03-20 03:00:00,
2013-03-19 21:54:00,17.0,-99.9,-100.00,North,-999,-999.0,-999.0,-999,-99.99,,,0.02,,2013-03-20 03:54:00,
2013-03-19 22:00:00,17.0,-99.9,-100.00,North,-999,-999.0,-999.0,-999,-99.99,,,-99.99,,2013-03-20 04:00:00,
2013-03-19 22:53:00,17.0,-99.9,-100.00,North,-999,-999.0,-999.0,-999,-99.99,,,-99.99,,2013-03-20 04:53:00,
2013-03-19 23:00:00,18.0,-99.9,-100.00,North,-999,-999.0,-999.0,-999,-99.99,,,0.00,,2013-03-20 05:00:00,
2013-03-19 23:53:00,18.0,-99.9,-100.00,North,-999,-999.0,-999.0,-999,-99.99,,,0.00,,2013-03-20 05:53:00,